Location: Cul de Sac
(18.0387°N, 63.0654°W)
Time: 23:09:47
(UTC+00:00)

GPS 2-14 Rocket1 - Pass Details

Date: 29 October 2020
Orbit: 476 x 540 km, 20.7° (Epoch: 29 November)

Event Time Altitude Azimuth Distance (km) Brightness Sun altitude
Rises 22:17:14 0° 277° (W) 2,667 7.9 -9.2°
Reaches altitude 10° 22:19:33 10° 271° (W) 1,781 6.9 -9.7°
Maximum altitude 22:23:33 47° 197° (SSW) 715 3.6 -10.7°
Drops below altitude 10° 22:27:33 10° 123° (ESE) 1,783 5.0 -11.6°
Enters shadow 22:27:47 - 122° (ESE) 1,870 5.1 -11.7°
